Weather History for TIST - October, 2011

Change the Weather History Date:

Monday, October 3, 2011

  Actual Average Record
Temperature  
Mean Temperature 83 °F 83 °F  
Max Temperature 88 °F 90 °F 94 °F (1994)
Min Temperature 77 °F 77 °F 71 °F (1956)
Degree Days  
Heating Degree Days 0 0  
Month to date heating degree days 0 0  
Since 1 July heating degree days 0 0  
Cooling Degree Days 18 18  
Month to date cooling degree days 53 54  
Year to date cooling degree days 4278 4613  
Growing Degree Days 32 (Base 50)    
Moisture  
Dew Point 74 °F    
Average Humidity 72    
Maximum Humidity 85    
Minimum Humidity 59    
Precipitation  
Precipitation 0.00 in 0.16 in 1.00 in (2007)
Month to date precipitation 0.04 0.48  
Year to date precipitation 35.80 26.21  
Snow  
Snow 0.00 in - - ()
Month to date snowfall 0.0  
Since 1 July snowfall 0.0  
Since 1 September snowfall 0.0  
Snow Depth 0.00 in    
Sea Level Pressure  
Sea Level Pressure 29.98 in    
Wind  
Wind Speed 9 mph (NE)    
Max Wind Speed 16 mph    
Max Gust Speed 21 mph    
Visibility 10 miles    
Events      
T = Trace of Precipitation, MM = Missing Value Source: NWS Daily Summary

Daily Weather History Graph

Daily Weather History Graph

Search for Another Location

Airport or City:

Trip Planner

Search our weather history database for the weather conditions in past years. The results will help you decide how hot, cold, wet, or windy it might be!

Date:

Astronomy

Oct. 03, 2011 Rise Set
Actual Time 6:10 AM AST 6:06 PM AST
Civil Twilight 5:48 AM AST 6:28 PM AST
Nautical Twilight 5:23 AM AST 6:54 PM AST
Astronomical Twilight 4:58 AM AST 7:19 PM AST
Moon 12:22 PM AST (10/3) 11:46 PM AST (10/3)
Length of Visible Light 12h 39m
Length of Day
11h 56m
Waxing Crescent, 45% of the Moon is Illuminated
Oct 3
Waxing Crescent
Oct 3
First Quarter
Oct 11
Full
Oct 19
Last Quarter
Oct 26
New

Hourly Weather History & Observations

Time (AST) Temp. Heat Index Dew Point Humidity Pressure Visibility Wind Dir Wind Speed Gust Speed Precip Events Conditions
12:53 AM 80.1 °F 85.1 °F 75.0 °F 85% 30.00 in 10.0 mi ENE 10.4 mph - N/A   Clear
1:53 AM 80.1 °F 84.2 °F 73.0 °F 79% 29.98 in 10.0 mi ENE 10.4 mph - N/A   Clear
2:53 AM 78.1 °F - 72.0 °F 81% 29.97 in 10.0 mi ENE 5.8 mph - N/A   Clear
3:53 AM 78.1 °F - 73.0 °F 84% 29.96 in 10.0 mi ENE 6.9 mph - N/A   Clear
4:53 AM 78.1 °F - 73.0 °F 84% 29.96 in 10.0 mi ENE 4.6 mph - N/A   Clear
5:53 AM 79.0 °F - 73.9 °F 84% 29.98 in 10.0 mi NE 5.8 mph - N/A   Clear
6:53 AM 80.1 °F 84.5 °F 73.9 °F 81% 29.99 in 10.0 mi NE 9.2 mph - N/A   Clear
7:53 AM 82.0 °F 88.6 °F 75.0 °F 79% 30.02 in 10.0 mi ENE 11.5 mph - N/A   Clear
8:53 AM 84.0 °F 91.2 °F 73.9 °F 72% 30.03 in 10.0 mi NE 11.5 mph - N/A   Clear
9:53 AM 86.0 °F 93.0 °F 73.0 °F 65% 30.04 in 10.0 mi NE 9.2 mph - N/A   Partly Cloudy
10:53 AM 86.0 °F 95.1 °F 75.0 °F 70% 30.02 in 10.0 mi NE 8.1 mph - N/A   Mostly Cloudy
11:53 AM 87.1 °F 94.5 °F 73.0 °F 63% 30.00 in 10.0 mi NE 12.7 mph 20.7 mph N/A   Mostly Cloudy
12:53 PM 84.9 °F 91.4 °F 73.0 °F 67% 29.98 in 10.0 mi NNE 10.4 mph - N/A   Mostly Cloudy
1:53 PM 86.0 °F 96.0 °F 75.9 °F 72% 29.95 in 10.0 mi ESE 12.7 mph - N/A   Mostly Cloudy
2:53 PM 87.1 °F 93.6 °F 72.0 °F 61% 29.94 in 10.0 mi NE 6.9 mph - N/A   Partly Cloudy
3:53 PM 86.0 °F 93.0 °F 73.0 °F 65% 29.93 in 10.0 mi NE 13.8 mph - N/A   Clear
4:53 PM 84.0 °F 91.9 °F 75.0 °F 74% 29.94 in 10.0 mi NE 11.5 mph - N/A   Partly Cloudy
5:53 PM 82.0 °F 87.9 °F 73.9 °F 76% 29.94 in 10.0 mi NE 9.2 mph - N/A   Clear
6:53 PM 80.1 °F 84.5 °F 73.9 °F 81% 29.96 in 10.0 mi NE 8.1 mph - N/A   Clear
7:53 PM 80.1 °F 84.5 °F 73.9 °F 81% 29.97 in 10.0 mi NE 6.9 mph - N/A   Clear
8:53 PM 80.1 °F 84.2 °F 73.0 °F 79% 29.99 in 10.0 mi NE 9.2 mph - N/A   Clear
9:53 PM 80.1 °F 84.2 °F 73.0 °F 79% 29.99 in 10.0 mi NE 10.4 mph - N/A   Clear
10:53 PM 80.1 °F 84.2 °F 73.0 °F 79% 29.98 in 10.0 mi NE 9.2 mph - N/A   Clear
11:53 PM 79.0 °F - 73.0 °F 82% 29.97 in 10.0 mi NE 9.2 mph - N/A   Clear